This demonstration page uses our WeatherBlox Daily Observations layout. Learn more.

Left ArrowRight Arrow

Hourly Observations for July 9, 2021

Temp ( °F °C ) Dew Point ( °F °C ) Humidity (%) Winds ( mph kmh ) Pressure ( in mb ) Visibility ( mi km ) Precip ( " mm )
12:15 am 00:15 Clear 79 26 60 15.4 52 52 S 21 33 29.70 1006 10 16 N/A
12:35 am 00:35 Clear 78 25.6 60 15.3 53 53 S 18 30 29.72 1006 10 16 N/A
12:55 am 00:55 Clear 78 25.3 59 15.2 54 54 S 17 28 29.73 1007 10 16 N/A
1:15 am 01:15 Clear 77 24.9 60 15.3 55 55 S 14 22 29.73 1007 10 16 N/A
1:35 am 01:35 Clear 76 24.7 60 15.3 56 56 S 16 26 29.72 1007 10 16 N/A
1:55 am 01:55 Clear 76 24.7 59 15.2 56 56 S 12 19 29.72 1007 10 16 N/A
2:15 am 02:15 Clear 76 24.6 60 15.5 57 57 S 10 17 29.72 1007 10 16 N/A
2:35 am 02:35 Clear 76 24.4 60 15.5 58 58 S 7 11 29.73 1007 10 16 N/A
2:55 am 02:55 Partly Cloudy 76 24.6 60 15.5 57 57 SW 7 11 29.76 1008 10 16 N/A
3:15 am 03:15 Mostly Cloudy with Nearby Thunderstorms 76 24.5 60 15.5 57 57 S 22 35 29.70 1006 10 16 N/A
3:35 am 03:35 Partly Cloudy with Nearby Thunderstorms 74 23.6 60 15.8 62 62 ESE 10 17 29.73 1007 10 16 N/A
3:55 am 03:55 Clear 73 23 61 16 65 65 SE 8 13 29.73 1007 10 16 N/A
4:15 am 04:15 Clear with Nearby Thunderstorms 73 22.5 61 16.3 68 68 SSE 12 19 29.74 1007 10 16 N/A
4:35 am 04:35 Clear 71 21.6 62 16.5 73 73 E 3 6 29.76 1008 10 16 N/A
4:55 am 04:55 Clear 71 21.6 62 16.9 75 75 N N/A 29.78 1008 10 16 N/A
5:15 am 05:15 Clear 69 20.7 63 17.3 81 81 NNE 12 19 29.82 1010 10 16 N/A
5:35 am 05:35 Clear 70 20.9 63 17.2 79 79 ENE 13 20 29.81 1010 10 16 N/A
5:55 am 05:55 Clear 70 21.1 63 17.2 79 79 E 12 19 29.82 1010 10 16 N/A
6:15 am 06:15 Clear 70 21 63 17.3 80 80 E 12 19 29.82 1010 10 16 N/A
6:35 am 06:35 Sunny 69 20.8 64 17.6 82 82 ESE 13 20 29.83 1010 10 16 N/A
6:55 am 06:55 Sunny 70 21.1 64 17.6 81 81 E 9 15 29.82 1010 10 16 N/A
7:15 am 07:15 Sunny 71 21.5 64 17.8 80 80 ESE 13 20 29.81 1009 10 16 N/A
7:35 am 07:35 Sunny 72 22 64 17.9 78 78 ESE 14 22 29.81 1009 10 16 N/A
7:55 am 07:55 Sunny 73 22.6 65 18.1 76 76 ESE 17 28 29.80 1009 10 16 N/A
8:15 am 08:15 Sunny 73 22.6 65 18.2 76 76 ESE 17 28 29.80 1009 10 16 N/A
8:35 am 08:35 Sunny 74 23.4 65 18.5 74 74 ESE 18 30 29.79 1009 10 16 N/A
8:55 am 08:55 Sunny 76 24.3 66 18.7 71 71 SE 14 22 29.78 1008 10 16 N/A
9:15 am 09:15 Sunny 77 25 66 18.8 69 69 SE 18 30 29.78 1008 10 16 N/A
9:35 am 09:35 Sunny 78 25.8 67 19.2 67 67 SSE 20 31 29.77 1008 10 16 N/A
9:55 am 09:55 Sunny 79 26.2 67 19.2 65 65 SSE 20 31 29.77 1008 10 16 N/A
10:15 am 10:15 Sunny 81 27 67 19.6 64 64 SSE 21 33 29.77 1008 10 16 N/A
10:35 am 10:35 Sunny 81 27.4 67 19.7 63 63 SSE 20 31 29.77 1008 10 16 N/A
10:55 am 10:55 Sunny 82 28 68 20 62 62 SSE 10 17 29.80 1009 10 16 N/A
11:15 am 11:15 Sunny 82 27.9 68 20 62 62 SSE 15 24 29.80 1009 10 16 N/A
11:35 am 11:35 Sunny 83 28.6 68 20.2 60 60 SSW 12 19 29.80 1009 10 16 N/A
11:55 am 11:55 Sunny 84 28.8 69 20.5 61 61 S 9 15 29.80 1009 10 16 N/A
12:15 pm 12:15 Sunny 85 29.5 69 20.8 60 60 S 10 17 29.78 1009 10 16 N/A
12:35 pm 12:35 Sunny 85 29.5 69 20.7 59 59 S 9 15 29.78 1009 10 16 N/A
12:55 pm 12:55 Sunny 85 29.6 70 21 60 60 S 8 13 29.79 1009 10 16 N/A
1:15 pm 13:15 Sunny 86 30 70 21 59 59 SSW 8 13 29.78 1008 10 16 N/A
1:35 pm 13:35 Sunny 86 30.1 70 21.1 59 59 SW 10 17 29.78 1008 10 16 N/A
1:55 pm 13:55 Sunny 87 30.4 70 20.9 57 57 SSW 6 9 29.77 1008 10 16 N/A
2:15 pm 14:15 Sunny 87 30.6 69 20.8 56 56 S 6 9 29.75 1008 10 16 N/A
2:35 pm 14:35 Sunny 87 30.7 70 21 56 56 SE 3 6 29.75 1008 10 16 N/A
2:55 pm 14:55 Sunny 88 31.1 71 21.6 57 57 SE 7 11 29.75 1007 10 16 N/A
3:15 pm 15:15 Sunny 89 31.5 71 21.9 57 57 N N/A 29.74 1007 10 16 N/A
3:35 pm 15:35 Sunny 89 31.9 71 21.8 55 55 S 6 9 29.73 1007 10 16 N/A
3:55 pm 15:55 Sunny 90 32.1 72 22.1 55 55 SSE 9 15 29.72 1007 10 16 N/A
4:15 pm 16:15 Sunny 90 32 72 22.2 56 56 SE 7 11 29.72 1007 10 16 N/A
4:35 pm 16:35 Sunny 90 32 72 22.4 57 57 S 7 11 29.71 1006 10 16 N/A
4:55 pm 16:55 Sunny 90 32.1 72 22.3 56 56 SSE 9 15 29.70 1006 10 16 N/A
5:15 pm 17:15 Sunny 90 32 72 22.4 57 57 SE 5 7 29.69 1006 10 16 N/A
5:35 pm 17:35 Sunny 90 32.3 73 22.5 56 56 S 8 13 29.69 1005 10 16 N/A
5:55 pm 17:55 Sunny 90 32.2 73 22.7 57 57 S 5 7 29.70 1006 10 16 N/A
6:15 pm 18:15 Sunny 88 31.2 73 22.7 61 61 ESE 5 7 29.71 1006 10 16 N/A
6:35 pm 18:35 Sunny 87 30.5 74 23.6 67 67 ENE 7 11 29.72 1006 10 16 N/A
6:55 pm 18:55 Sunny 86 29.8 75 24.1 72 72 NE 6 9 29.73 1007 10 16 N/A
7:15 pm 19:15 Sunny 85 29.3 76 24.3 74 74 ENE 5 7 29.74 1007 10 16 N/A
7:35 pm 19:35 Sunny 84 29.1 75 24.1 74 74 N N/A 29.73 1007 10 16 N/A
7:55 pm 19:55 Sunny 85 29.2 74 23.3 71 71 E 6 9 29.71 1006 10 16 N/A
8:15 pm 20:15 Sunny 85 29.2 73 23 69 69 E 6 9 29.71 1006 10 16 N/A
8:35 pm 20:35 Sunny 84 28.8 73 23 71 71 ENE 7 11 29.72 1006 10 16 N/A
8:55 pm 20:55 Sunny 82 27.5 74 23.6 79 79 NE 3 6 29.75 1007 10 16 N/A
9:15 pm 21:15 Clear 80 26.5 75 24.1 87 87 N 8 13 29.77 1008 10 16 N/A
9:35 pm 21:35 Clear 80 26.8 74 23.6 83 83 NNE 9 15 29.77 1008 10 16 N/A
9:55 pm 21:55 Mostly Cloudy 72 22.1 58 14.6 63 63 NNW 44 70 29.83 1010 4 6 N/A
10:15 pm 22:15 Partly Cloudy with Light Rain 68 19.8 60 15.5 76 76 N 29 46 29.79 1009 10 16 N/A
10:35 pm 22:35 Clear with Thunderstorms 69 20.7 59 15.1 70 70 ENE 12 19 29.75 1007 10 16 N/A
10:55 pm 22:55 Clear 69 20.5 60 15.4 73 73 SSW 14 22 29.76 1008 10 16 N/A
11:15 pm 23:15 Clear 69 20.6 59 15.1 71 71 S 12 19 29.78 1008 10 16 N/A
11:35 pm 23:35 Clear 69 20.3 59 15.2 73 73 SSE 6 9 29.74 1007 10 16 N/A
11:55 pm 23:55 Clear 67 19.3 61 16 81 81 W 8 13 29.77 1008 10 16 N/A

Powered by AerisWeather